EW5196 Weather Reports


Display with metric or nautical units.
time (UTC)temp
F
wind
direction
speed
MPH
gust
MPH
rain 1hr
in
rain 24hr
in
rain mn
in
humidity
%
barometer
mb
20260507044827 67 162 1.0 2.0 0.00 0.00 0.00 88 1011.4
20260507044324 67 153 2.0 2.0 0.00 0.00 0.00 88 1011.4
20260507043819 67 116 1.0 2.0 0.00 0.00 0.00 88 1011.6
20260507043316 67 144 2.0 2.0 0.00 0.00 0.00 88 1011.4
20260507042812 67 159 2.0 2.0 0.00 0.00 0.00 88 1011.5
20260507042308 67 157 2.0 2.0 0.00 0.00 0.00 88 1011.8
20260507041805 67 162 2.0 3.0 0.00 0.00 0.00 88 1011.7
20260507041302 67 151 2.0 2.0 0.00 0.00 0.00 88 1011.7
20260507040759 67 146 2.0 2.0 0.00 0.00 0.00 87 1011.2
20260507040255 67 134 1.0 2.0 0.00 0.00 0.00 87 1011.0
20260507035751 67 174 2.0 3.0 0.00 0.07 0.07 87 1011.2
20260507035246 67 152 2.0 2.0 0.00 0.07 0.07 88 1011.4
20260507034745 67 128 1.0 2.0 0.00 0.07 0.07 88 1011.5
20260507034241 67 144 2.0 2.0 0.00 0.07 0.07 87 1011.9
20260507033740 67 130 2.0 2.0 0.00 0.07 0.07 87 1011.9
20260507033237 67 161 2.0 3.0 0.00 0.07 0.07 88 1011.7
20260507032734 67 160 2.0 2.0 0.00 0.07 0.07 88 1011.5
20260507032230 67 166 1.0 2.0 0.00 0.07 0.07 87 1011.5
20260507031726 67 155 2.0 2.0 0.00 0.07 0.07 87 1011.6
20260507031223 67 147 2.0 3.0 0.00 0.07 0.07 88 1011.2
20260507030720 67 157 0.0 2.0 0.00 0.07 0.07 88 1011.0
20260507030218 67 178 2.0 2.0 0.00 0.07 0.07 87 1011.1
20260507025715 67 134 1.0 2.0 0.00 0.07 0.07 87 1011.1
20260507025212 67 157 2.0 3.0 0.00 0.07 0.07 88 1011.3
20260507024710 67 148 2.0 2.0 0.00 0.07 0.07 88 1010.9
20260507024207 67 145 2.0 2.0 0.00 0.07 0.07 88 1010.8
20260507023702 67 181 0.0 2.0 0.00 0.07 0.07 88 1011.0
20260507023159 67 166 2.0 2.0 0.00 0.07 0.07 88 1011.3
20260507022656 67 151 2.0 2.0 0.00 0.07 0.07 88 1011.1
20260507022152 67 156 2.0 2.0 0.00 0.07 0.07 88 1011.3
20260507021649 67 171 1.0 2.0 0.00 0.07 0.07 88 1011.3
20260507021144 67 160 1.0 3.0 0.00 0.07 0.07 88 1011.3
20260507020643 67 151 2.0 2.0 0.00 0.07 0.07 88 1011.6
20260507020138 67 164 2.0 2.0 0.00 0.07 0.07 88 1011.3
20260507015637 67 164 2.0 2.0 0.00 0.07 0.07 88 1011.6
20260507015134 67 169 2.0 2.0 0.00 0.07 0.07 88 1011.5
20260507014631 67 165 2.0 2.0 0.00 0.07 0.07 87 1011.6
20260507014126 67 168 2.0 2.0 0.00 0.07 0.07 87 1011.6
20260507013623 67 165 2.0 2.0 0.00 0.07 0.07 87 1011.5
20260507013120 67 164 2.0 2.0 0.00 0.07 0.07 87 1011.4
20260507012618 67 152 2.0 2.0 0.00 0.07 0.07 87 1011.6
20260507012113 67 178 2.0 2.0 0.00 0.07 0.07 87 1011.3
20260507011612 67 167 2.0 2.0 0.00 0.07 0.07 87 1011.4
20260507011108 67 170 2.0 2.0 0.00 0.07 0.07 86 1011.5
20260507010603 67 170 2.0 2.0 0.00 0.07 0.07 86 1011.6
20260507010058 67 155 2.0 2.0 0.00 0.07 0.07 86 1011.2
20260507005556 67 141 1.0 2.0 0.00 0.07 0.07 85 1011.0
20260507005052 67 142 1.0 2.0 0.00 0.07 0.07 85 1011.1
20260507004549 67 139 0.0 2.0 0.00 0.07 0.07 86 1011.1
20260507004047 67 129 2.0 3.0 0.00 0.07 0.07 85 1011.4
20260507003542 67 156 0.0 2.0 0.00 0.07 0.07 85 1011.3
20260507003038 68 165 1.0 2.0 0.00 0.07 0.07 85 1011.4
20260507002535 68 169 2.0 2.0 0.00 0.07 0.07 84 1011.3
20260507002030 68 156 2.0 2.0 0.00 0.07 0.07 84 1011.3
20260507001527 68 154 2.0 2.0 0.00 0.07 0.07 84 1011.3
20260507001025 68 151 1.0 3.0 0.00 0.07 0.07 83 1011.3
20260507000520 68 155 1.0 3.0 0.00 0.07 0.07 83 1011.3
20260507000016 69 162 2.0 3.0 0.00 0.07 0.07 82 1011.4
20260506235514 69 161 2.0 2.0 0.00 0.07 0.07 82 1011.2
20260506235009 69 178 1.0 3.0 0.00 0.07 0.07 81 1011.3
20260506234508 69 175 2.0 2.0 0.00 0.07 0.07 81 1011.2
20260506234004 69 171 2.0 3.0 0.00 0.07 0.07 80 1011.2
20260506233501 69 154 2.0 3.0 0.00 0.07 0.07 80 1011.0
20260506232957 70 148 1.0 3.0 0.00 0.07 0.07 79 1010.9
20260506232454 70 144 1.0 2.0 0.00 0.07 0.07 79 1011.3
20260506231949 70 154 2.0 2.0 0.00 0.07 0.07 78 1011.2
20260506231447 70 175 1.0 3.0 0.00 0.07 0.07 77 1011.3
20260506230944 71 156 2.0 2.0 0.00 0.07 0.07 77 1011.0
20260506230440 71 173 2.0 2.0 0.00 0.07 0.07 77 1010.9
20260506225937 71 168 2.0 2.0 0.00 0.07 0.07 76 1011.0
20260506225435 71 174 1.0 2.0 0.00 0.07 0.07 77 1011.2
20260506224931 71 158 1.0 2.0 0.00 0.07 0.07 76 1011.1
20260506224429 70 173 1.0 2.0 0.00 0.07 0.07 77 1011.3
20260506223925 70 162 2.0 2.0 0.00 0.07 0.07 78 1011.3
20260506223420 70 145 0.0 2.0 0.00 0.07 0.07 78 1010.9
20260506222918 70 168 1.0 2.0 0.00 0.07 0.07 77 1011.2
20260506222414 70 154 1.0 2.0 0.00 0.07 0.07 77 1011.2
20260506221911 70 163 2.0 3.0 0.00 0.07 0.07 77 1011.3
20260506221408 70 145 2.0 3.0 0.00 0.07 0.07 77 1011.1
20260506220900 70 134 3.0 3.0 0.00 0.07 0.07 77 1011.1
20260506220355 70 146 3.0 3.0 0.00 0.07 0.07 77 1011.0
20260506215853 71 175 2.0 3.0 0.00 0.07 0.07 77 1010.9
20260506215348 71 166 2.0 2.0 0.00 0.07 0.07 77 1011.0
20260506214844 71 177 1.0 3.0 0.00 0.07 0.07 77 1011.1
20260506214341 71 145 2.0 3.0 0.00 0.07 0.07 77 1010.9
20260506213839 71 163 2.0 3.0 0.00 0.07 0.07 75 1011.2
20260506213336 71 127 2.0 3.0 0.00 0.07 0.07 76 1011.1
20260506212833 71 192 3.0 3.0 0.00 0.07 0.07 75 1011.1
20260506212329 71 118 1.0 3.0 0.00 0.07 0.07 76 1011.3
20260506211825 71 182 1.0 3.0 0.00 0.07 0.07 78 1011.4
20260506211321 71 118 2.0 2.0 0.00 0.07 0.07 77 1011.1
20260506210818 71 114 1.0 3.0 0.00 0.07 0.07 79 1011.2
20260506210315 71 147 0.0 2.0 0.00 0.07 0.07 78 1011.4
20260506205812 71 165 2.0 2.0 0.00 0.07 0.07 80 1011.2
20260506205308 71 145 1.0 3.0 0.00 0.07 0.07 79 1011.0
20260506204804 71 105 2.0 2.0 0.00 0.07 0.07 79 1011.3
20260506204303 71 180 1.0 3.0 0.00 0.07 0.07 80 1011.2
20260506203800 71 158 1.0 3.0 0.00 0.07 0.07 81 1011.3
20260506203257 70 139 1.0 3.0 0.00 0.07 0.07 83 1010.9
20260506202754 69 153 2.0 2.0 0.00 0.07 0.07 84 1010.9
20260506202251 68 153 1.0 1.0 0.00 0.07 0.07 84 1010.9
20260506201747 69 94 0.0 1.0 0.00 0.07 0.07 84 1011.1
20260506201244 69 162 1.0 2.0 0.00 0.07 0.07 83 1011.3
20260506200741 69 152 1.0 2.0 0.00 0.07 0.07 82 1011.1
20260506200237 68 164 2.0 2.0 0.00 0.07 0.07 83 1011.3
20260506195734 68 157 1.0 3.0 0.00 0.07 0.07 84 1011.2
20260506195230 68 155 2.0 3.0 0.00 0.07 0.07 84 1011.5
20260506194728 68 156 2.0 3.0 0.00 0.07 0.07 83 1010.9
20260506194224 68 165 1.0 3.0 0.00 0.07 0.07 84 1010.8
20260506193722 68 160 2.0 2.0 0.00 0.07 0.07 85 1010.6
20260506193219 68 177 2.0 3.0 0.00 0.07 0.07 85 1010.8
20260506192715 68 155 2.0 2.0 0.00 0.07 0.07 86 1010.6
20260506192212 67 155 1.0 2.0 0.00 0.07 0.07 85 1010.9
20260506191709 67 212 1.0 3.0 0.00 0.07 0.07 87 1011.3
20260506191205 67 151 0.0 3.0 0.00 0.07 0.07 87 1011.3
20260506190703 66 139 2.0 3.0 0.00 0.07 0.07 88 1011.7
20260506190159 66 180 1.0 3.0 0.00 0.07 0.07 88 1011.5
20260506185656 65 116 2.0 2.0 0.00 0.07 0.07 89 1011.6
20260506185152 65 146 2.0 3.0 0.00 0.07 0.07 89 1011.8
20260506184650 65 164 2.0 4.0 0.00 0.07 0.07 89 1012.0
20260506184147 65 71 2.0 3.0 0.00 0.07 0.07 90 1011.7
20260506183643 65 139 2.0 3.0 0.00 0.07 0.07 90 1011.8
20260506183139 65 172 1.0 3.0 0.00 0.07 0.07 89 1011.6
20260506182637 65 124 2.0 3.0 0.00 0.07 0.07 89 1011.6
20260506182134 65 73 1.0 3.0 0.00 0.07 0.07 89 1011.8
20260506181632 65 145 0.0 3.0 0.00 0.07 0.07 89 1012.0
20260506181129 65 152 2.0 3.0 0.00 0.07 0.07 89 1012.1
20260506180626 65 145 1.0 3.0 0.00 0.07 0.07 90 1012.7
20260506180122 65 156 2.0 4.0 0.00 0.07 0.07 90 1012.4
20260506175618 65 158 2.0 3.0 0.00 0.07 0.07 88 1012.5
20260506175114 65 111 2.0 3.0 0.00 0.07 0.07 88 1012.3
20260506174614 65 132 0.0 4.0 0.00 0.07 0.07 91 1012.5
20260506174110 65 183 2.0 4.0 0.00 0.07 0.07 91 1012.4
20260506173608 65 141 3.0 3.0 0.00 0.07 0.07 91 1012.4
20260506173104 65 137 2.0 3.0 0.00 0.07 0.07 91 1012.5
20260506172602 64 142 3.0 3.0 0.00 0.07 0.07 92 1012.3
20260506172057 64 146 3.0 4.0 0.00 0.07 0.07 92 1012.3
20260506171555 64 105 1.0 2.0 0.00 0.07 0.07 93 1012.4
20260506171053 64 108 1.0 3.0 0.00 0.07 0.07 93 1012.3
20260506170550 63 119 1.0 2.0 0.00 0.07 0.07 93 1012.4
20260506170047 63 137 2.0 2.0 0.02 0.07 0.07 94 1012.6
20260506165546 63 137 2.0 3.0 0.02 0.07 0.07 94 1012.9
20260506165041 64 138 1.0 4.0 0.00 0.07 0.07 94 1013.2
20260506164539 64 112 2.0 2.0 0.00 0.07 0.07 93 1012.8
20260506164036 64 126 3.0 3.0 0.00 0.07 0.07 93 1013.3
20260506163532 64 162 2.0 3.0 0.00 0.07 0.07 93 1013.4
20260506163027 64 183 2.0 4.0 0.00 0.07 0.07 93 1013.2
20260506162524 64 189 2.0 4.0 0.02 0.07 0.07 94 1012.9
20260506162021 64 138 2.0 3.0 0.02 0.07 0.07 94 1013.2
20260506161519 63 158 2.0 3.0 0.00 0.07 0.07 94 1012.9
20260506161015 63 150 2.0 3.0 0.00 0.07 0.07 94 1013.0
20260506160513 63 150 2.0 3.0 0.02 0.07 0.07 93 1013.0
20260506160010 63 119 0.0 2.0 0.02 0.07 0.07 93 1012.8
20260506155508 63 155 1.0 2.0 0.00 0.06 0.06 93 1013.1
20260506153640 63 115 1.0 2.0 0.00 0.06 0.06 92 1013.1
20260506153137 63 154 2.0 2.0 0.00 0.06 0.06 93 1012.9
20260506152634 63 103 1.0 2.0 0.00 0.06 0.06 93 1013.4
20260506152132 63 170 1.0 2.0 0.00 0.06 0.06 93 1013.4
20260506151630 62 123 2.0 2.0 0.00 0.06 0.06 93 1013.4
20260506151127 62 137 2.0 2.0 0.00 0.06 0.06 94 1013.5
20260506150624 62 147 2.0 2.0 0.00 0.06 0.06 94 1013.5
20260506150120 62 154 1.0 2.0 0.00 0.06 0.06 94 1013.7
20260506145618 62 148 2.0 2.0 0.00 0.06 0.06 95 1013.6
20260506145114 62 151 2.0 2.0 0.00 0.06 0.06 95 1013.5
20260506144611 62 145 1.0 2.0 0.02 0.06 0.06 95 1013.5
20260506144108 61 135 1.0 2.0 0.02 0.06 0.06 95 1013.6
20260506143606 61 137 2.0 2.0 0.02 0.06 0.06 94 1013.6
20260506143104 61 145 2.0 2.0 0.05 0.06 0.06 93 1013.7
20260506142602 61 129 1.0 2.0 0.09 0.06 0.06 93 1013.6
20260506142100 62 161 1.0 3.0 0.12 0.05 0.05 92 1013.8
20260506141557 62 139 2.0 2.0 0.17 0.04 0.04 91 1013.8
20260506141055 62 157 2.0 2.0 0.09 0.02 0.02 89 1013.8
20260506140552 63 151 1.0 2.0 0.02 0.01 0.01 88 1013.9
20260506140050 63 128 2.0 2.0 0.02 0.01 0.01 87 1014.0
20260506135546 63 91 2.0 2.0 0.02 0.01 0.01 85 1013.8
20260506135042 64 138 2.0 2.0 0.02 0.00 0.00 83 1013.9
20260506134539 64 119 1.0 2.0 0.02 0.00 0.00 79 1014.0
20260506134035 65 119 2.0 2.0 0.00 0.00 0.00 78 1013.7
20260506133532 65 185 0.0 3.0 0.00 0.00 0.00 75 1013.7
20260506133029 65 136 2.0 2.0 0.00 0.00 0.00 74 1013.7
20260506132526 65 146 0.0 2.0 0.00 0.00 0.00 75 1013.6
20260506132024 65 119 2.0 2.0 0.00 0.00 0.00 73 1013.6
20260506131521 65 159 2.0 2.0 0.00 0.00 0.00 73 1013.4
20260506131017 66 107 0.0 3.0 0.00 0.00 0.00 73 1013.6
20260506130514 65 100 2.0 3.0 0.00 0.00 0.00 73 1013.6
20260506130012 65 168 0.0 3.0 0.00 0.00 0.00 72 1013.7
20260506125510 65 94 2.0 2.0 0.00 0.00 0.00 73 1013.3
20260506125007 65 112 2.0 2.0 0.00 0.00 0.00 73 1013.8
20260506124505 65 95 2.0 3.0 0.00 0.00 0.00 74 1013.5
20260506124003 65 114 0.0 2.0 0.00 0.00 0.00 74 1013.7
20260506123500 64 126 1.0 2.0 0.00 0.00 0.00 74 1013.4
20260506122958 64 138 2.0 3.0 0.00 0.00 0.00 75 1013.6
20260506122454 64 124 1.0 2.0 0.00 0.00 0.00 75 1013.3
20260506121953 64 132 1.0 4.0 0.00 0.00 0.00 75 1013.2
20260506121450 64 149 2.0 3.0 0.00 0.00 0.00 74 1013.5
20260506120946 65 91 2.0 3.0 0.00 0.00 0.00 74 1013.4
20260506120444 65 105 1.0 3.0 0.00 0.00 0.00 74 1013.3
20260506115941 65 160 2.0 2.0 0.00 0.00 0.00 74 1013.4
20260506115439 65 152 1.0 3.0 0.00 0.00 0.00 73 1013.5
20260506114937 65 132 1.0 3.0 0.00 0.00 0.00 73 1013.3
20260506114434 65 134 0.0 2.0 0.00 0.00 0.00 73 1013.5
20260506113933 65 126 2.0 2.0 0.00 0.00 0.00 73 1013.2
20260506113430 65 118 1.0 2.0 0.00 0.00 0.00 73 1013.2
20260506112926 64 14 1.0 3.0 0.00 0.00 0.00 73 1013.5
20260506112424 64 113 2.0 2.0 0.00 0.00 0.00 74 1013.3
20260506111921 64 140 2.0 3.0 0.00 0.00 0.00 73 1013.4
20260506111419 64 149 2.0 3.0 0.00 0.00 0.00 74 1013.5
20260506110916 64 146 1.0 3.0 0.00 0.00 0.00 73 1013.2
20260506110414 64 142 1.0 2.0 0.00 0.00 0.00 73 1013.2
20260506105910 64 146 2.0 3.0 0.00 0.00 0.00 73 1013.2
20260506105406 64 138 0.0 2.0 0.00 0.00 0.00 73 1013.2
20260506104904 64 115 1.0 2.0 0.00 0.00 0.00 73 1013.3
20260506104402 64 141 2.0 2.0 0.00 0.00 0.00 73 1013.2
20260506103900 64 141 1.0 3.0 0.00 0.00 0.00 72 1013.3
20260506103357 64 62 0.0 3.0 0.00 0.00 0.00 72 1013.5
20260506102854 64 187 1.0 2.0 0.00 0.00 0.00 73 1013.4
20260506102352 64 129 1.0 2.0 0.00 0.00 0.00 74 1013.6
20260506101848 64 83 1.0 3.0 0.00 0.00 0.00 73 1013.7
20260506101345 64 91 2.0 4.0 0.00 0.00 0.00 74 1013.6
20260506100843 64 152 2.0 2.0 0.00 0.00 0.00 73 1013.4
20260506100341 64 145 1.0 2.0 0.00 0.00 0.00 73 1013.4
20260506095839 64 243 3.0 3.0 0.00 0.00 0.00 73 1013.4
20260506095336 64 68 2.0 3.0 0.00 0.00 0.00 73 1013.5
20260506094832 64 94 2.0 2.0 0.00 0.00 0.00 74 1013.2
20260506094331 64 119 2.0 2.0 0.00 0.00 0.00 74 1013.1
20260506093829 64 134 1.0 3.0 0.00 0.00 0.00 74 1013.1
20260506093326 64 146 1.0 2.0 0.00 0.00 0.00 73 1013.3
20260506092824 64 124 2.0 3.0 0.00 0.00 0.00 73 1013.1
20260506092321 64 115 2.0 2.0 0.00 0.00 0.00 74 1013.0
20260506091818 64 140 2.0 2.0 0.00 0.00 0.00 74 1012.8
20260506091316 64 110 2.0 2.0 0.00 0.00 0.00 74 1013.2
20260506090813 64 53 2.0 2.0 0.00 0.00 0.00 73 1013.3
20260506090310 64 147 0.0 3.0 0.00 0.00 0.00 74 1013.1
20260506085807 64 127 1.0 2.0 0.00 0.00 0.00 74 1013.2
20260506085305 64 148 2.0 2.0 0.00 0.00 0.00 74 1013.4
20260506084800 64 154 2.0 3.0 0.00 0.00 0.00 74 1013.1
20260506084256 64 132 2.0 2.0 0.00 0.00 0.00 74 1013.3
20260506083753 64 118 1.0 2.0 0.00 0.00 0.00 74 1013.4
20260506083251 64 180 1.0 3.0 0.00 0.00 0.00 74 1013.6
20260506082748 64 106 2.0 2.0 0.00 0.00 0.00 73 1013.7
20260506082243 64 114 2.0 3.0 0.00 0.00 0.00 73 1013.6
20260506081741 64 129 2.0 2.0 0.00 0.00 0.00 73 1013.6
20260506081239 64 123 2.0 3.0 0.00 0.00 0.00 73 1013.6
20260506080737 64 128 1.0 2.0 0.00 0.00 0.00 73 1013.5
20260506080233 64 143 2.0 3.0 0.00 0.00 0.00 73 1013.5
20260506073217 65 108 1.0 2.0 0.00 0.00 0.00 71 1013.7
20260506072714 65 167 2.0 2.0 0.00 0.00 0.00 70 1013.6
20260506072211 65 185 1.0 3.0 0.00 0.00 0.00 70 1013.6
20260506071708 65 156 0.0 2.0 0.00 0.00 0.00 69 1013.7
20260506071206 65 111 1.0 2.0 0.00 0.00 0.00 69 1013.6
20260506070703 65 108 1.0 2.0 0.00 0.00 0.00 69 1013.7
20260506070200 66 125 1.0 2.0 0.00 0.00 0.00 69 1013.6
20260506062137 67 105 1.0 2.0 0.00 0.00 0.00 67 1013.9
20260506061633 67 131 1.0 3.0 0.00 0.00 0.00 67 1013.9
20260506061131 67 75 3.0 3.0 0.00 0.00 0.00 67 1013.9
20260506060629 67 116 2.0 2.0 0.00 0.00 0.00 66 1013.9
20260506060126 67 133 0.0 3.0 0.00 0.00 0.00 66 1013.8
20260506051058 68 67 0.0 3.0 0.00 0.00 0.00 63 1014.0
20260506050556 68 79 2.0 4.0 0.00 0.00 0.00 63 1014.3
20260506045046 69 60 1.0 2.0 0.00 0.00 0.00 62 1014.3